{"data":{"norad_id":66127,"epoch":"2026-09-20T06:59:23.596512Z","epoch_age_seconds":118452,"freshness":"FRESH","line1":"1 66127U 25237P   26263.29124533 -.00003229  00000+0 -84476-4 0  9999","line2":"2 66127  53.1607 214.3862 0000808  69.7121 290.3968 15.34399469 52427","mean_motion":15.34399469,"eccentricity":8.08e-5,"inclination_deg":53.1607,"raan_deg":214.3862,"arg_perigee_deg":69.7121,"mean_anomaly_deg":290.3968,"bstar":-8.4476e-5,"rev_number":5242,"period_min":93.84779055864,"perigee_km":462.15207843253,"apogee_km":463.25755847039,"semimajor_km":6840.8418184515,"source":"CELESTRAK","updated_at":"2026-09-21T09:00:35.809011Z"}}